User: anonymous
Location: Sperry Observatory
(40.6664°N, 74.3236°W)
Time: 07:45:34
(UTC-04:00)
Language:

UOSAT-12 - Orbit

View from above orbital plane
View from above orbital plane
View from above satellite
View from above satellite

Ground track
Ground track

The orbit data is extracted from the following two-line orbital elements,

1 25693U 99021A   14233.90868345  .00000099  00000-0  32122-4 0  5743
2 25693 064.5568 059.9298 0049259 279.9145 183.6450 14.80006262827642
Epoch (UTC): 21 August 2014 21:48:30
Eccentricity: 0.0049259
inclination: 64.5568°
perigee height: 595 km
apogee height: 664 km
right ascension of ascending node: 59.9298°
argument of perigee: 279.9145°
revolutions per day: 14.80006262
mean anomaly at epoch: 183.6450°
orbit number at epoch: 82764

The dashed part of the orbit path shows where the satellite is in the earth's shadow,  

DLR